Tracking 30995 objects as of 7-Jul-2025
HD Live streaming from Space Station
objects crossing your sky now

COSMOS 1823 DEB

Track COSMOS 1823 DEB now!
10-day predictions


NORAD ID: 18800
Int'l Code: 1987-020AL
Perigee: 1,477.2 km
Apogee: 1,558.8 km
Inclination: 73.6 °
Period: 116.2 minutes
Semi major axis: 7889 km
RCS: 0.043 m2 (small)
Launch date: February 20, 1987
Source: Commonwealth of Independent States (former USSR) (CIS)
Launch site: PLESETSK MISSILE AND SPACE COMPLEX (PKMTR)

Note: This is SATELLITE DEBRIS
Your satellite tracking list
Your tracking list is empty




NASA's NSSDC Master Catalog

Two Line Element Set (TLE):
1 18800U 87020AL  25187.28233480 -.00000021  00000-0 -28488-4 0  9996
2 18800  73.5892 229.2209 0051722 142.3922 348.7183 12.38990601697925
Source of the keplerian elements: AFSPC